#timestamp,LO_Frequency,Hit,StdDev 
1512820815.1,286047001.5,N
1512820835.9,286047004.8,N
1512820855.7,286047005.7,N
1512820875.5,286047005.3,N
1512820895.4,286047005.8,N
1512820915.2,286047005.2,N
1512820935.0,286047003.0,N
1512820935.9,286047003.0,N
1512820955.8,286047006.5,N
1512820975.6,286047006.7,N
1512820995.4,286047007.3,Y
1512821015.3,286047006.0,P
1512821035.1,286047003.9,P
1512821036.0,286047003.9,P
1512821055.8,286047004.0,Y
1512821075.7,286046999.3,P
1512821095.5,286047000.9,N
1512821115.3,286046997.3,N
1512821135.2,286046994.9,N
1512821155.9,286046995.2,N
1512821175.7,286046991.7,N
1512821195.6,286046989.7,N
1512821215.4,286046989.0,N
1512821235.2,286046990.6,N
1512821255.0,286046992.7,N
1512821256.0,286046992.7,N
1512821275.8,286046990.6,N
1512821295.6,286046991.3,N
1512821315.4,286046992.7,N
1512821335.3,286046991.2,N
1512821355.1,286046990.5,N
1512821375.8,286046997.3,N
1512821395.7,286046990.4,N
1512821415.5,286046991.2,N
1512821435.3,286046988.7,N
1512821455.2,286046989.5,N
1512821475.9,286046990.5,N
1512821495.7,286046993.0,N
1512821515.6,286046992.6,N
1512821535.4,286046994.3,N
1512821555.2,286046995.6,N
1512821575.0,286046997.4,N
1512821576.0,286046997.4,N
1512821595.8,286046996.5,N
1512821615.6,286047000.3,N
1512821635.4,286047002.4,N
1512821655.3,286047002.3,N
1512821675.1,286047002.8,N
1512821695.8,286046998.4,N
1512821715.7,286047000.0,N
1512821735.5,286046996.8,N
1512821755.3,286046992.3,N
1512821775.2,286046991.2,N
1512821795.9,286046988.9,N
1512821815.7,286046996.0,N
1512821835.6,286046995.8,N
1512821855.4,286046994.5,N
1512821875.2,286046992.0,N
1512821895.0,286046993.6,N
1512821896.0,286046993.6,N
1512821915.8,286046994.5,N
1512821935.6,286046996.7,N
1512821955.4,286046996.1,N
1512821975.3,286046995.0,N
1512821995.1,286046995.0,N
1512822015.8,286046995.0,N
1512822035.7,286046993.8,N
1512822055.5,286046994.1,N
1512822075.3,286046993.0,N
1512822095.2,286046992.3,N
1512822115.9,286046990.4,N
1512822135.7,286046989.0,Y
1512822155.6,286046988.6,P
1512822175.4,286046987.5,P
1512822195.2,286046989.6,N
1512822215.1,286046989.3,Y
1512822216.0,286046989.3,P
1512822235.8,286047001.1,N
1512822255.6,286047001.9,N
1512822275.5,286047003.5,N
1512822295.3,286047005.4,N
1512822315.1,286047008.1,N
1512822335.9,286047007.7,N
1512822355.7,286047011.9,N
1512822375.5,286047011.7,N
1512822395.4,286047009.6,N
1512822415.2,286047011.2,N
1512822435.0,286047013.3,N
1512822435.9,286047013.3,N
1512822455.7,286047015.4,N
1512822475.6,286047014.8,N
1512822495.4,286047009.3,N
1512822515.2,286047007.5,N
1512822535.1,286047007.4,N
1512822536.0,286047007.4,N
1512822555.8,286047005.3,N
1512822575.6,286047007.5,N
1512822595.5,286047005.1,N
1512822615.3,286047006.4,N
1512822635.1,286047004.8,N
1512822655.9,286047002.5,N
1512822675.7,286047001.7,N
1512822695.5,286046999.8,N
1512822715.4,286046998.1,N
1512822735.2,286047001.6,N
1512822755.0,286047000.7,N
1512822755.9,286047000.7,N
1512822775.8,286046999.1,N
1512822795.6,286047000.5,N
1512822815.4,286047000.7,N
1512822835.2,286047000.4,N
1512822855.1,286046998.3,N
1512822856.0,286046998.3,N
1512822875.8,286046998.1,N
1512822895.6,286047002.5,N
1512822915.5,286047000.4,N
1512822935.3,286047000.7,N
1512822955.1,286047002.7,N
1512822975.9,286047001.7,N
1512822995.7,286047001.3,N
1512823015.5,286047003.9,N
1512823035.4,286047003.0,N
1512823055.2,286047002.6,N
1512823075.0,286046993.5,N
1512823075.9,286046993.5,N
1512823095.8,286046993.3,N
1512823115.6,286046996.6,N
1512823135.4,286046998.5,N
1512823155.3,286046998.4,N
1512823175.1,286046998.6,N
1512823176.0,286046998.6,N
1512823195.8,286046996.6,N
1512823215.7,286046996.3,N
1512823235.5,286046994.2,N
1512823255.3,286046993.4,N
1512823275.1,286046995.1,N
1512823295.9,286046998.7,N
1512823315.7,286047001.0,N
1512823335.5,286046999.8,N
1512823355.4,286047000.2,N
1512823375.2,286046998.5,N
1512823395.0,286046999.4,N
1512823395.9,286046999.4,N
1512823415.8,286047002.2,N
1512823435.6,286046996.7,N
1512823455.4,286046996.2,N
1512823475.3,286046990.6,Y
1512823495.1,286046990.6,P
1512823496.0,286046990.6,N
1512823515.8,286046988.5,P
1512823535.7,286046992.7,N
1512823555.5,286046990.0,N
1512823575.3,286046989.4,Y
1512823595.2,286046997.2,P
1512823615.9,286046995.6,N
1512823635.7,286046996.2,N
1512823655.6,286046997.9,N
1512823675.4,286046997.7,N
1512823695.2,286046998.5,N
1512823715.0,286046998.3,N
1512823716.0,286046998.3,N
1512823735.8,286046996.7,N
1512823755.6,286046997.1,N
1512823775.4,286046998.4,N
1512823795.3,286047004.2,N
1512823815.1,286047005.4,N
1512823835.8,286047005.4,N
1512823855.7,286047008.3,N
1512823875.5,286047009.7,N
1512823895.3,286047012.4,N
1512823915.2,286047013.0,N
1512823935.9,286047014.4,N
1512823955.7,286047013.7,N
1512823975.6,286047014.9,N
1512823995.4,286047013.9,N
1512824015.2,286047012.9,N
1512824035.0,286047015.6,N
1512824036.0,286047015.6,N
1512824055.8,286047011.6,N
1512824075.6,286047014.0,N
1512824095.4,286047010.6,N
1512824115.3,286047005.5,N
1512824135.1,286047003.0,N
1512824155.8,286047005.5,N
1512824175.7,286047005.0,N
1512824195.5,286047006.0,N
1512824215.3,286047002.5,N
1512824235.2,286047001.5,N
1512824255.9,286046998.1,N
1512824275.7,286046997.4,N
1512824295.6,286046993.6,N
1512824315.4,286046995.2,N
1512824335.2,286046994.9,N
1512824355.0,286047000.5,N
1512824356.0,286047000.5,N
1512824375.8,286047001.5,N
1512824395.6,286047005.8,N
